Zurück zum Katalog

STARLINK-36544

AktivKommunikationVLEO
NORAD 67517·PAYLOAD·🇺🇸 United States

Gestartet Jan 18, 2026 von Cape Canaveral Space Force Station

Loading…

Nächste Überflüge (nächste 24 Stunden)

TLE

AktuellSource: CelesTrak SupGP

Epoche: Sep 15, 2026, 04:04 UTC

1 67517C 26012AA  26258.16993056  .00038413  00000+0  13909-2 0  2589
2 67517  43.0023 324.2610 0001592 263.1154   1.6706 15.27568675    10

Verfolge STARLINK-36544 in Echtzeit mit AllMySat

Download on the App Store